Amsterdam, Netherlands

2:35 AM CET on December 07, 2019 (GMT +0100)
Schiphol

Weather History for EHAM - October, 2019

Change the Weather History Date:

Friday, October 4, 2019

  Actual Average Record
Temperature  
Mean Temperature 53 °F -  
Max Temperature 59 °F 55 °F 71 °F (2010)
Min Temperature 47 °F 44 °F 41 °F (2008)
Degree Days  
Heating Degree Days 12    
Growing Degree Days 3 (Base 50)    
Moisture  
Dew Point 48 °F    
Average Humidity 89    
Maximum Humidity 100    
Minimum Humidity 75    
Precipitation  
Precipitation 0.39 in - - ()
Sea Level Pressure  
Sea Level Pressure 29.67 in    
Wind  
Wind Speed 10 mph ()    
Max Wind Speed 20 mph    
Max Gust Speed -    
Visibility 7.6 miles    
Events Rain    
Averages and records for this station are not official NWS values.
T = Trace of Precipitation, MM = Missing Value Source: Averaged Metar Reports

Daily Weather History Graph

Daily Weather History Graph

Search for Another Location

Airport or City:

Astronomy

Oct. 04, 2019 Rise Set
Actual Time 7:46 AM CEST 7:12 PM CEST
Civil Twilight 7:12 AM CEST 7:45 PM CEST
Nautical Twilight 6:33 AM CEST 8:25 PM CEST
Astronomical Twilight 5:52 AM CEST 9:05 PM CEST
Moon 2:45 PM CEST (10/4) 10:44 PM CEST (10/4)
Length of Visible Light 12h 33m
Length of Day
11h 25m
Waxing Crescent, 37% of the Moon is Illuminated
Oct 4
Waxing Crescent
Oct 5
First Quarter
Oct 13
Full
Oct 21
Last Quarter
Oct 28
New

Hourly Weather History & Observations

Time (CEST) Temp. Dew Point Humidity Pressure Visibility Wind Dir Wind Speed Gust Speed Precip Events Conditions
12:00 AM 51 °F 48 °F 84% 29.93 in 25 mi South 6.7 mph - -   Partly Cloudy
12:25 AM 51.8 °F 48.2 °F 88% 29.89 in 6.2 mi SSE 9.2 mph - N/A   Partly Cloudy
12:55 AM 51.8 °F 48.2 °F 88% 29.89 in 6.2 mi South 8.1 mph - N/A   Partly Cloudy
1:00 AM 51 °F 47 °F 83% 29.90 in 18 mi South 8.9 mph - -   Partly Cloudy
1:25 AM 50.0 °F 48.2 °F 94% 29.89 in 6.2 mi South 6.9 mph - N/A   Partly Cloudy
1:55 AM 50.0 °F 46.4 °F 87% 29.86 in 6.2 mi SSE 9.2 mph - N/A   Unknown
2:00 AM 50 °F 46 °F 81% 29.86 in 17 mi SSE 8.9 mph - -   Partly Cloudy
2:25 AM 50.0 °F 44.6 °F 82% 29.83 in - SSE 10.4 mph - N/A   Clear
2:55 AM 50.0 °F 44.6 °F 82% 29.80 in - SSE 9.2 mph - N/A   Clear
3:00 AM 50 °F 44 °F 75% 29.81 in 19 mi SE 8.9 mph - -   Partly Cloudy
3:25 AM 50.0 °F 44.6 °F 82% 29.80 in 6.2 mi SSE 9.2 mph - N/A   Partly Cloudy
3:55 AM 50.0 °F 44.6 °F 82% 29.77 in 6.2 mi SE 10.4 mph - N/A   Partly Cloudy
4:00 AM 49 °F 44 °F 78% 29.78 in 19 mi SE 11.2 mph - -   Partly Cloudy
4:25 AM 50.0 °F 44.6 °F 82% 29.77 in 6.2 mi SE 11.5 mph - N/A   Partly Cloudy
4:55 AM 50.0 °F 44.6 °F 82% 29.74 in 6.2 mi SE 11.5 mph - N/A   Partly Cloudy
5:00 AM 49 °F 44 °F 78% 29.75 in 19 mi SE 11.2 mph - -   Partly Cloudy
5:25 AM 50.0 °F 44.6 °F 82% 29.71 in 6.2 mi SE 12.7 mph - N/A   Partly Cloudy
5:55 AM 48.2 °F 44.6 °F 87% 29.71 in 5.6 mi SE 12.7 mph - N/A Rain Light Rain
6:00 AM 49 °F 44 °F 78% 29.71 in 12 mi SE 13.4 mph - - Rain Light Rain Showers
6:25 AM 48.2 °F 44.6 °F 87% 29.68 in 6.2 mi SE 12.7 mph - N/A   Mostly Cloudy
6:55 AM 48.2 °F 44.6 °F 87% 29.65 in 6.2 mi SE 13.8 mph - N/A Rain Light Rain
7:00 AM 48 °F 44 °F 83% 29.66 in 17 mi SE 13.4 mph - - Rain Light Drizzle
7:25 AM 48.2 °F 44.6 °F 87% 29.65 in 6.2 mi SE 10.4 mph - N/A Rain Light Rain
7:55 AM 48.2 °F 46.4 °F 93% 29.62 in 2.5 mi SE 12.7 mph - N/A Rain Light Rain
8:00 AM 48 °F 46 °F 89% 29.63 in 6 mi SE 13.4 mph - - Rain Rain
8:25 AM 48.2 °F 46.4 °F 93% 29.62 in 3.1 mi SE 13.8 mph - N/A Rain Light Rain
8:55 AM 48.2 °F 46.4 °F 93% 29.59 in 3.7 mi SE 15.0 mph - N/A Rain Light Rain
9:00 AM 48 °F 47 °F 93% 29.60 in 6 mi SE 15.7 mph - - Rain Rain
9:25 AM 48.2 °F 46.4 °F 93% 29.59 in 2.5 mi SE 16.1 mph - N/A Rain Light Rain
9:55 AM 48.2 °F 48.2 °F 100% 29.56 in 3.1 mi SE 15.0 mph - N/A   Drizzle
10:00 AM 49 °F 47 °F 92% 29.58 in 3 mi SE 13.4 mph - - Rain Light Rain
10:25 AM 48.2 °F 48.2 °F 100% 29.56 in 3.7 mi SE 15.0 mph - N/A   Light Drizzle
10:55 AM 50.0 °F 48.2 °F 94% 29.56 in 2.5 mi SE 13.8 mph - N/A   Drizzle
11:00 AM 49 °F 48 °F 95% 29.56 in 4 mi SE 13.4 mph - - Rain Heavy Rain
11:25 AM 50.0 °F 48.2 °F 94% 29.53 in 3.7 mi SE 15.0 mph - N/A   Light Drizzle
11:55 AM 50.0 °F 50.0 °F 100% 29.53 in 3.7 mi SE 11.5 mph - N/A   Light Drizzle
12:00 PM 50 °F 49 °F 96% 29.56 in 6 mi SE 11.2 mph - - Rain Rain
12:25 PM 50.0 °F 50.0 °F 100% 29.53 in 2.5 mi Variable 5.8 mph - N/A   Light Drizzle
12:55 PM 51.8 °F 51.8 °F 100% 29.53 in 5.0 mi SE 5.8 mph - N/A   Mostly Cloudy
1:00 PM 53 °F 53 °F 98% 29.55 in 5 mi SE 4.5 mph - - Rain Light Drizzle
1:25 PM 55.4 °F 53.6 °F 94% 29.53 in 5.6 mi SSW 6.9 mph - N/A Rain Light Rain
1:55 PM 59.0 °F 55.4 °F 88% 29.53 in 6.2 mi West 15.0 mph - N/A   Light Drizzle
2:25 PM 59.0 °F 53.6 °F 82% 29.53 in 6.2 mi West 15.0 mph - N/A   Light Drizzle
2:55 PM 59.0 °F 55.4 °F 88% 29.53 in 6.2 mi West 19.6 mph - N/A   Mostly Cloudy
3:00 PM 59 °F 54 °F 77%  in 19 mi West 20.1 mph - -   Partly Cloudy
3:25 PM 59.0 °F 53.6 °F 82% 29.53 in 6.2 mi West 19.6 mph - N/A   Mostly Cloudy
3:55 PM 57.2 °F 55.4 °F 94% 29.53 in 5.6 mi WNW 16.1 mph - N/A Rain Light Rain
4:00 PM 57 °F 55 °F 90% 29.56 in 3 mi WNW 15.7 mph - - Rain Rain Showers
4:25 PM 57.2 °F 55.4 °F 94% 29.56 in 6.2 mi NW 12.7 mph - N/A Rain Light Rain
4:55 PM 55.4 °F 53.6 °F 94% 29.56 in 6.2 mi NNW 11.5 mph - N/A   Mostly Cloudy
5:00 PM 55 °F 53 °F 90% 29.59 in 19 mi NNW 11.2 mph - - Rain Rain
5:25 PM 55.4 °F 51.8 °F 88% 29.59 in 6.2 mi NNW 9.2 mph - N/A Rain Light Rain
5:55 PM 53.6 °F 51.8 °F 94% 29.59 in 6.2 mi NNW 8.1 mph - N/A Rain Light Rain
6:00 PM 54 °F 51 °F 86% 29.62 in 13 mi North 8.9 mph - - Rain Rain
6:25 PM 53.6 °F 51.8 °F 94% 29.62 in 4.3 mi North 5.8 mph - N/A   Light Drizzle
6:55 PM 51.8 °F 50.0 °F 94% 29.62 in 5.6 mi North 5.8 mph - N/A   Light Drizzle
7:25 PM 51.8 °F 50.0 °F 94% 29.65 in 6.2 mi North 8.1 mph - N/A   Mostly Cloudy
7:55 PM 51.8 °F 48.2 °F 88% 29.65 in 6.2 mi North 8.1 mph - N/A   Mostly Cloudy
8:00 PM 51 °F 48 °F 87% 29.68 in 22 mi North 8.9 mph - - Rain Drizzle
8:25 PM 51.8 °F 48.2 °F 88% 29.68 in 6.2 mi Variable 6.9 mph - N/A   Mostly Cloudy
8:55 PM 51.8 °F 48.2 °F 88% 29.68 in 6.2 mi Variable 8.1 mph - N/A   Mostly Cloudy
9:00 PM 51 °F 48 °F 87% 29.71 in 17 mi North 6.7 mph - -   Partly Cloudy
9:25 PM 50.0 °F 48.2 °F 94% 29.71 in 6.2 mi North 5.8 mph - N/A Rain Light Rain
9:55 PM 50.0 °F 48.2 °F 94% 29.71 in 6.2 mi Variable 8.1 mph - N/A Rain Light Rain
10:00 PM 51 °F 48 °F 86% 29.74 in 16 mi NNE 6.7 mph - - Rain Light Rain Showers
10:25 PM 50.0 °F 48.2 °F 94% 29.74 in 6.2 mi North 6.9 mph - N/A   Partly Cloudy
10:55 PM 50.0 °F 48.2 °F 94% 29.74 in 6.2 mi North 6.9 mph - N/A   Partly Cloudy
11:00 PM 49 °F 47 °F 90% 29.77 in 12 mi North 6.7 mph - - Rain Rain
11:25 PM 48.2 °F 46.4 °F 93% 29.77 in 6.2 mi North 5.8 mph - N/A   Partly Cloudy
11:55 PM 48.2 °F 46.4 °F 93% 29.77 in 6.2 mi North 4.6 mph - N/A   Partly Cloudy